Regional Weather Roundup
Issued by NWS Upton, NY

Current Version | Previous Version | Graphics & Text | Print | Product List | Glossary Off
Versions: 1 2 3 4 5 6 7 8 9 10 11 12 13 14 15 16 17 18 19 20 21 22 23 24 25 26 27 28 29 30 31 32 33 34 35 36 37 38 39 40 41 42 43 44 45 46 47 48 49 50

000
ASUS41 KOKX 190805
RWROKX

REGIONAL WEATHER ROUNDUP
NATIONAL WEATHER SERVICE NEW YORK NY
400 AM EDT SUN OCT 19 2014

NOTE: "FAIR" INDICATES FEW OR NO CLOUDS BELOW 12,000 FEET WITH NO
SIGNIFICANT WEATHER AND/OR OBSTRUCTIONS TO VISIBILITY.

NYZ071-072-176-178-NJZ106-104-190900-
NEW YORK CITY METRO AREA


CITY           SKY/WX    TMP DP  RH WIND       PRES   REMARKS
CENTRAL PARK   CLOUDY    55  40  56 NW8       29.78R
LAGUARDIA APRT MOCLDY    55  42  61 NW15G23   29.74R
KENNEDY INTL   MOCLDY    56  41  57 NW15      29.75R
NEWARK/LIBERTY CLOUDY    55  41  59 NW14G25   29.76R
BRNX BOT. GARD   N/A     54  41  62 N5        29.76R
TETERBORO      CLOUDY    54  40  59 NW10      29.75R
$$

NYZ177-179-078>081-190900-
LONG ISLAND NEW YORK

CITY           SKY/WX    TMP DP  RH WIND       PRES   REMARKS
FARMINGDALE    CLOUDY    56  43  61 NW8       29.73R
ISLIP          CLOUDY    54  45  71 W7        29.70R
SHIRLEY        NOT AVBL
WESTHAMPTON    CLOUDY    52  45  77 W5        29.71S
MONTAUK POINT    N/A     58  44  60 NW12G21   29.69R
$$

NYZ052-065-067-190900-
HUDSON VALLEY

CITY           SKY/WX    TMP DP  RH WIND       PRES   REMARKS
WHITE PLAINS   MOCLDY    52  42  69 NW8       29.72R
NEWBURGH       MOCLDY    50  41  71 NW7       29.75R
MONTGOMERY     PTCLDY    49  38  65 NW7       29.75R
POUGHKEEPSIE   CLOUDY    53  42  66 N7        29.74R
ALBANY         CLOUDY    48  38  68 NW14G22   29.76S
$$

NJZ001-105-106-008-010-013-015-019>022-104-190900-
NEW JERSEY

CITY           SKY/WX    TMP DP  RH WIND       PRES   REMARKS
NEWARK/LIBERTY CLOUDY    55  41  59 NW14G25   29.76R
TETERBORO      CLOUDY    54  40  59 NW10      29.75R
CALDWELL       CLOUDY    53  39  59 NW8       29.77R
MORRISTOWN     CLOUDY    55  41  58 NW3       29.77R
SOMERVILLE     CLOUDY    53  40  61 NW12      29.76R
SUSSEX         CLOUDY    52  40  63 VRB6      29.78R
ANDOVER          N/A     50  39  66 N8        29.80R
TRENTON        CLOUDY    52  40  63 NW7       29.79R
MILLVILLE      CLEAR     49  42  77 W8        29.81S
ATLANTIC CITY  PTCLDY    48  42  80 W9        29.79S
WRIGHTSTOWN    MOCLDY    50  43  75 NW8       29.76S
TOMS RIVER     PTCLDY    48  41  76 NW6       29.77S
BELMAR         MOCLDY    52  39  62 NW8       29.76R
$$

PAZ047>061-062-071-190900-
EASTERN PENNSYLVANIA

CITY           SKY/WX    TMP DP  RH WIND       PRES   REMARKS
PHILADELPHIA   MOCLDY    54  40  59 NW10      29.81S
ALLENTOWN      CLOUDY    50  37  61 N12G18    29.83R
SCRANTON       CLOUDY    46  38  73 N9        29.84R
$$

CTZ002-004>006-009-010-012-RIZ004-006-007-MAZ004-011-015-190900-
SOUTHERN NEW ENGLAND
 IN CT

CITY           SKY/WX    TMP DP  RH WIND       PRES   REMARKS
BRADLEY INTL   CLOUDY    52  41  66 NW14      29.70R
HARTFORD       CLOUDY    53  40  61 VRB6      29.71R
DANBURY        CLOUDY    52  42  69 NW7       29.73R
WTRBRY/OXFORD  CLOUDY    50  37  62 NW7       29.71S
BRIDGEPORT     CLOUDY    56  44  64 NW8       29.71S
MERIDEN        CLOUDY    53  42  66 NW3       29.71R
NEW HAVEN      CLOUDY    56  42  59 NW9       29.70S
CHESTER        CLOUDY    54  43  66 NW7       29.70R
GROTON         CLOUDY    54  45  71 NW12      29.68R
WILLIMANTIC    CLOUDY    53  42  66 NW8G18    29.68R

 IN RI

CITY           SKY/WX    TMP DP  RH WIND       PRES   REMARKS
PROVIDENCE     CLOUDY    53  47  79 W7        29.66R
BLOCK ISLAND   CLOUDY    55  43  62 NW10      29.67R
WESTERLY       CLOUDY    55  46  71 W5        29.68R

 IN MA

CITY           SKY/WX    TMP DP  RH WIND       PRES   REMARKS
BOSTON         CLOUDY    54  46  74 W9        29.63S
WORCESTER      CLOUDY    50  43  77 NW10      29.66R
WESTFIELD      CLOUDY    52  41  66 NW13      29.69R
PROVINCETOWN   CLOUDY    57  46  67 W13G20    29.63S
NANTUCKET      CLOUDY    58  49  72 W8        29.64R
$$

ANZ330-335-338-340-345-350-353-355-190900-
COASTAL MARINE OBSERVATIONS


STATION/POSITION TIME  SKY/WX   TEMP    WIND        PRES    VSBY  WAVE
                                AIR SEA DIR/SP/G                  HT/PER
                 (UTC)          (F)     (DEG/KT/KT) (MB)    (MI)  (FT/S)
NY HARB ENTRANCE NOT AVBL
4S FIRE IS       0800               65                N/A           5/14
20S FIRE ISLAND  0800            58 65  320/ 16/ 21 1006.0          6/13
23SW MTP         0800                                 N/A           6/11
HUDSON CANYON    0800            60 67  300/ 16/ 19 1006.1          8/14
EXECUTION ROCKS  0800            56 64  310/ 16/ 21   N/A
WESTERN LI SOUND 0800            56     300/ 16/ 17   N/A           1
CENTRAL LI SOUND 0700            58 65  300/ 16/ 19   N/A           2/ 4
EASTERN LI SOUND 0700            58 65  290/ 14/ 17   N/A
ROBBINS REEF     0800            55     310/ 14/ 21 1006.2
$$


>>>>>>>>>>>>>>>>>>>>>>>>>>>> KEY <<<<<<<<<<<<<<<<<<<<<<<<<<<
>                                                          <
>     SKY/WX - SKY CONDITION/PRESENT WEATHER               <
>     TMP    - TEMPERATURE IN FAHRENHEIT                   <
>     DP     - DEWPOINT IN FAHRENHEIT                      <
>     RH     - RELATIVE HUMIDITY IN PERCENT                <
>     WIND   - DIRECTION AND SPEED IN MPH                  <
>     PRES   - MEAN SEA LEVEL PRESSURE IN INCHES OF HG     <
>     WCI    - WIND CHILL INDEX                            <
>     VSB    - VISIBILITY IN MILES                         <
>     HX     - HEAT INDEX                                  <
>     TC     - TEMPERATURE IN CELSIUS                      <
>     VRB    - VARIABLE WIND DIRECTION                     <
>                                                          <
>>>>>>>>>>>>>>>>>>>>>>>>>>>> KEY <<<<<<<<<<<<<<<<<<<<<<<<<<<




USA.gov is the U.S. government's official web portal to all federal, state and local government web resources and services.